DLH37F EDDF-LFLL

Flight info

Callsign DLH37F
Flight time N/A
Altitude 29000
Route ANEKI2L/18 ANEKI Y163 HERBI/N0416F310 Y164 MOPAN DCT LUTIX DCT BENOT N869 MILPA
Aircraft A320/M-SDE3FGHIRWY/LB1

Departure

Time 2026-05-06 17:29
Airport Frankfurt Main Airport (EDDF)

Arrival

Time N/A
Airport Lyon Saint-Exupéry Airport (LFLL)
Time Latitude Longitude Altitude Speed Heading
2026-05-06 16:43 50.04403 8.56223 345 ft 0 kts 159°
2026-05-06 17:07 50.04412 8.56217 351 ft 4 kts 159°
2026-05-06 17:07 50.04436 8.56204 349 ft 2 kts 159°
2026-05-06 17:07 50.04457 8.56195 348 ft 4 kts 193°
2026-05-06 17:08 50.04475 8.56215 354 ft 4 kts 247°
2026-05-06 17:08 50.04484 8.56252 351 ft 4 kts 249°
2026-05-06 17:08 50.04494 8.56292 352 ft 4 kts 249°
2026-05-06 17:08 50.04503 8.56331 352 ft 4 kts 249°
2026-05-06 17:09 50.04513 8.56370 352 ft 3 kts 249°
2026-05-06 17:09 50.04514 8.56375 352 ft 0 kts 249°
2026-05-06 17:18 50.04509 8.56356 353 ft 4 kts 249°
2026-05-06 17:18 50.04499 8.56316 348 ft 3 kts 249°
2026-05-06 17:18 50.04490 8.56276 344 ft 5 kts 249°
2026-05-06 17:18 50.04480 8.56235 353 ft 2 kts 249°
2026-05-06 17:19 50.04478 8.56228 347 ft 1 kts 249°
2026-05-06 17:19 50.04470 8.56194 351 ft 5 kts 250°
2026-05-06 17:19 50.04452 8.56117 347 ft 9 kts 250°
2026-05-06 17:19 50.04413 8.56032 344 ft 10 kts 202°
2026-05-06 17:20 50.04347 8.56054 347 ft 9 kts 159°
2026-05-06 17:20 50.04291 8.56074 344 ft 7 kts 191°
2026-05-06 17:20 50.04247 8.55973 348 ft 16 kts 249°
2026-05-06 17:20 50.04209 8.55812 347 ft 16 kts 250°
2026-05-06 17:21 50.04171 8.55657 344 ft 15 kts 249°
2026-05-06 17:21 50.04136 8.55512 347 ft 16 kts 250°
2026-05-06 17:21 50.04089 8.55313 347 ft 21 kts 250°
2026-05-06 17:21 50.04039 8.55103 352 ft 22 kts 249°
2026-05-06 17:22 50.03982 8.54866 346 ft 23 kts 250°
2026-05-06 17:22 50.03929 8.54643 348 ft 21 kts 249°
2026-05-06 17:22 50.03879 8.54433 348 ft 20 kts 250°
2026-05-06 17:22 50.03810 8.54259 344 ft 18 kts 242°
2026-05-06 17:23 50.03766 8.54077 344 ft 18 kts 250°
2026-05-06 17:23 50.03721 8.53890 351 ft 18 kts 250°
2026-05-06 17:23 50.03676 8.53705 349 ft 18 kts 249°
2026-05-06 17:23 50.03632 8.53531 344 ft 17 kts 248°
2026-05-06 17:24 50.03593 8.53367 350 ft 16 kts 250°
2026-05-06 17:24 50.03556 8.53215 346 ft 14 kts 250°
2026-05-06 17:24 50.03522 8.53075 345 ft 13 kts 250°
2026-05-06 17:24 50.03492 8.52949 344 ft 12 kts 250°
2026-05-06 17:25 50.03466 8.52842 344 ft 9 kts 245°
2026-05-06 17:25 50.03444 8.52775 350 ft 5 kts 247°
2026-05-06 17:25 50.03438 8.52750 349 ft 0 kts 250°
2026-05-06 17:25 50.03438 8.52749 349 ft 0 kts 250°
2026-05-06 17:27 50.03425 8.52694 348 ft 11 kts 250°
2026-05-06 17:27 50.03386 8.52600 347 ft 10 kts 206°
2026-05-06 17:27 50.03333 8.52596 345 ft 3 kts 179°
2026-05-06 17:28 50.03205 8.52597 344 ft 53 kts 180°
2026-05-06 17:28 50.02595 8.52601 344 ft 119 kts 180°
2026-05-06 17:29 50.01581 8.52601 363 ft 168 kts 184°
2026-05-06 17:29 50.00449 8.52610 983 ft 162 kts 183°
2026-05-06 17:29 49.99313 8.52630 1637 ft 163 kts 180°
2026-05-06 17:29 49.98136 8.52694 2053 ft 180 kts 179°
2026-05-06 17:30 49.96804 8.52795 2376 ft 202 kts 178°
2026-05-06 17:30 49.95452 8.52901 2710 ft 221 kts 178°
2026-05-06 17:30 49.93868 8.53026 3330 ft 230 kts 178°
2026-05-06 17:30 49.92272 8.53150 4203 ft 230 kts 179°
2026-05-06 17:31 49.90675 8.53272 5035 ft 231 kts 179°
2026-05-06 17:31 49.89061 8.53391 5827 ft 233 kts 179°
2026-05-06 17:31 49.87435 8.53507 6581 ft 235 kts 179°
2026-05-06 17:31 49.85794 8.53622 7330 ft 237 kts 179°
2026-05-06 17:32 49.84134 8.53737 8045 ft 240 kts 179°
2026-05-06 17:32 49.83022 8.53815 8520 ft 243 kts 179°
2026-05-06 17:32 49.80865 8.53960 9561 ft 246 kts 179°
2026-05-06 17:32 49.79146 8.54074 10305 ft 249 kts 179°
2026-05-06 17:33 49.77419 8.54054 10946 ft 257 kts 186°
2026-05-06 17:33 49.75551 8.53814 11206 ft 281 kts 186°
2026-05-06 17:33 49.73567 8.53546 11429 ft 304 kts 186°
2026-05-06 17:33 49.71383 8.53246 11743 ft 324 kts 186°
2026-05-06 17:34 49.69110 8.52935 12382 ft 331 kts 186°
2026-05-06 17:34 49.66805 8.52625 13130 ft 334 kts 186°
2026-05-06 17:34 49.65196 8.52414 13634 ft 337 kts 186°
2026-05-06 17:34 49.62950 8.52122 14236 ft 341 kts 185°
2026-05-06 17:35 49.60570 8.51814 14910 ft 345 kts 185°
2026-05-06 17:35 49.58173 8.51504 15575 ft 347 kts 185°
2026-05-06 17:35 49.55756 8.51187 16240 ft 350 kts 185°
2026-05-06 17:36 49.50873 8.50541 17557 ft 356 kts 185°
2026-05-06 17:36 49.48397 8.50216 18187 ft 359 kts 185°
2026-05-06 17:36 49.45915 8.49894 18745 ft 362 kts 185°
2026-05-06 17:36 49.43403 8.49566 19307 ft 364 kts 185°
2026-05-06 17:37 49.40871 8.49234 19887 ft 366 kts 185°
2026-05-06 17:37 49.38321 8.48902 20452 ft 369 kts 185°
2026-05-06 17:37 49.35751 8.48568 21018 ft 372 kts 185°